Regional Weather Roundup
Issued by NWS

Home | Current Version | Previous Version | Graphics & Text | Print | Product List | Glossary On
Versions: 1 2 3 4 5 6 7 8 9 10 11 12 13 14 15 16 17 18 19 20 21 22 23 24 25 26 27 28 29 30 31 32 33 34 35 36 37 38 39 40 41 42 43 44 45 46 47 48 49 50
000
ASUS43 KDTX 190001
RWRMI
MICHIGAN HOURLY REGIONAL WEATHER ROUNDUP
NATIONAL WEATHER SERVICE DETROIT/PONTIAC MI
800 PM EDT THU SEP 18 2014

NOTE: "FAIR" INDICATES FEW OR NO CLOUDS BELOW 12,000 FEET WITH NO
SIGNIFICANT WEATHER AND/OR OBSTRUCTION TO VISIBILITY.

MIZ047>049-052>055-059>063-066>070-074>076-081>083-190100-
SOUTHEAST LOWER MICHIGAN

CITY           SKY/WX    TMP DP  RH WIND       PRES   REMARKS
ADRIAN         CLEAR     58  51  78 E7        30.14R
6HR MIN TEMP:  58; 6HR MAX TEMP:  72;

ALMA           CLEAR     49  46  89 NE5       30.18R
ANN ARBOR      CLEAR     58  49  72 NE7       30.15R
BAD AXE        CLEAR     46  41  84 CALM      30.21R
6HR MIN TEMP:  46; 6HR MAX TEMP:  55;

CARO           MOCLDY    49  44  83 N3        30.19R
DETROIT CITY   CLEAR     57  48  72 NE6       30.17R
6HR MIN TEMP:  57; 6HR MAX TEMP:  70;

DETROIT        MOCLDY    59  50  72 E7        30.16R
6HR MIN TEMP:  59; 6HR MAX TEMP:  69;

FLINT          PTCLDY    55  46  71 NE7       30.17S
6HR MIN TEMP:  55; 6HR MAX TEMP:  63;

GROSSE ILE     CLEAR     57  52  82 NE9       30.15R
HILLSDALE      CLEAR     59  50  72 CALM      30.14R
HOWELL         CLEAR     54  50  87 CALM      30.16S FOG
6HR MIN TEMP:  53; 6HR MAX TEMP:  62;


CITY           SKY/WX    TMP DP  RH WIND       PRES   REMARKS
JACKSON        CLEAR     57  50  77 NE5       30.15R
6HR MIN TEMP:  57; 6HR MAX TEMP:  69;

LAMBERTVILLE   PTCLDY    61  54  77 NE5       30.15R
LANSING        CLEAR     54  49  83 NE6       30.17R
6HR MIN TEMP:  54; 6HR MAX TEMP:  64;

LAPEER         MOCLDY    51  46  80 CALM      30.18S
MASON          CLEAR     54  50  87 E5        30.16S
MONROE         CLEAR     57  52  82 NE8       30.14R
MT. CLEMENS    PTCLDY    52  47  84 NE10      30.16R
6HR MIN TEMP:  51; 6HR MAX TEMP:  63;

PONTIAC        PTCLDY    54  47  77 N7        30.16S
6HR MIN TEMP:  54; 6HR MAX TEMP:  65;

PORT HOPE        N/A     50  38  63 NE10      30.19F
6HR MIN TEMP:  50; 6HR MAX TEMP:  54;

PORT HURON     CLEAR     48  45  87 N3        30.19R
TRI CITIES     CLEAR     50  43  77 NE6       30.20S
6HR MIN TEMP:  50; 6HR MAX TEMP:  58;

TROY           PTCLDY    58  47  68 NE8       30.18S HAZE
SAGINAW HB     PTCLDY    50  45  81 NE5       30.18S
$$
MIZ043>046-050>051-056>058-064>065-071>073-077>080-190100-
SOUTHWEST LOWER MICHIGAN

CITY           SKY/WX    TMP DP  RH WIND       PRES   REMARKS
BATTLE CREEK   CLEAR     61  52  72 NE7       30.14S
6HR MIN TEMP:  61; 6HR MAX TEMP:  70;

BENTON HARBOR  CLEAR     60  52  74 CALM      30.11S
6HR MIN TEMP:  60; 6HR MAX TEMP:  67;

BIG RAPIDS     CLEAR     52  52  98 SE6       30.15S
6HR MIN TEMP:  52; 6HR MAX TEMP:  60;

COLDWATER      CLEAR     60  51  73 NE3       30.13R
6HR MIN TEMP:  60; 6HR MAX TEMP:  70;

FREMONT        FAIR      57  52  84 CALM      30.14S
HOLLAND        PTCLDY    62  53  72 N6        30.14R
6HR MIN TEMP:  61; 6HR MAX TEMP:  72;

GRAND RAPIDS   PTCLDY    56  52  86 E6        30.15S
6HR MIN TEMP:  56; 6HR MAX TEMP:  69;

IONIA          FAIR      54  51  89 E6        30.15S
KALAMAZOO      CLEAR     63  51  65 NE5       30.14R
6HR MIN TEMP:  63; 6HR MAX TEMP:  70;

LUDINGTON      CLEAR     55  51  87 N5        30.15S
MARSHALL       CLEAR     58  51  77 NE3       30.14R
MOUNT PLEASANT PTCLDY    50  47  88 E3        30.18R
6HR MIN TEMP:  50; 6HR MAX TEMP:  56;

MUSKEGON       MOCLDY    60  52  74 CALM      30.14R
6HR MIN TEMP:  60; 6HR MAX TEMP:  69;

SOUTH HAVEN    CLEAR     61  55  80 CALM      30.12S
$$
MIZ016>042-190100-
NORTHERN LOWER MICHIGAN

CITY           SKY/WX    TMP DP  RH WIND       PRES   REMARKS
ALPENA         CLEAR     45  38  76 E3        30.22R
6HR MIN TEMP:  44; 6HR MAX TEMP:  55;

BEAVER ISLAND  CLEAR     47  44  90 CALM      30.17F
6HR MIN TEMP:  47; 6HR MAX TEMP:  55;

CADILLAC       CLEAR     53  50  90 SE6       30.14S
CHARLEVOIX     CLEAR     52  44  75 CALM      30.19S
6HR MIN TEMP:  52; 6HR MAX TEMP:  58;

FRANKFORT      CLEAR     53  45  73 CALM      30.15S
GAYLORD        CLEAR     50  40  68 E3        30.17R
6HR MIN TEMP:  50; 6HR MAX TEMP:  56;

GRAYLING       CLEAR     49  43  77 E5        30.17S
6HR MIN TEMP:  49; 6HR MAX TEMP:  57;

HARBOR SPRINGS CLEAR     49  41  73 E8        30.18R HAZE
HOUGHTON LAKE  CLOUDY    51  45  79 SE7       30.17R
6HR MIN TEMP:  51; 6HR MAX TEMP:  60;

MANISTEE       CLEAR     55  45  67 N5        30.15F
OSCODA         CLEAR     48  38  69 E6        30.20S
PELLSTON       CLEAR     48  39  71 E7        30.19R
6HR MIN TEMP:  48; 6HR MAX TEMP:  56;

TRAVERSE CITY  PTCLDY    53  46  77 CALM      30.14S
6HR MIN TEMP:  53; 6HR MAX TEMP:  60;

$$
MIZ007>008-015-190100-
EASTERN UPPER MICHIGAN

CITY           SKY/WX    TMP DP  RH WIND       PRES   REMARKS
KINROSS        CLEAR     45  37  76 SE8       30.19F
6HR MIN TEMP:  45; 6HR MAX TEMP:  52;

MACKINAC ISLAN CLEAR     47  37  67 E10       30.19S
6HR MIN TEMP:  47; 6HR MAX TEMP:  50;

NEWBERRY       CLEAR     45  40  81 SW3       30.17S HAZE
S. S. MARIE    CLEAR     46  35  65 SE5       30.19F
6HR MIN TEMP:  46; 6HR MAX TEMP:  52;

$$
MIZ004>006-011>014-085-190100-
CENTRAL UPPER MICHIGAN

CITY           SKY/WX    TMP DP  RH WIND       PRES   REMARKS
MANISTIQUE     PTCLDY    47  40  76 CALM      30.17F
ESCANABA       MOCLDY    50  41  71 SE5       30.16S
6HR MIN TEMP:  50; 6HR MAX TEMP:  54;

MENOMINEE      MOCLDY    52  43  71 E3        30.14F
6HR MIN TEMP:  52; 6HR MAX TEMP:  54;

SAWYER-GWINN   PTCLDY    50  41  71 S9        30.14R
$$
MIZ001>003-009>011-084-190100-
WESTERN UPPER MICHIGAN

CITY           SKY/WX    TMP DP  RH WIND       PRES   REMARKS
IRON MOUNTAIN  CLOUDY    54  44  69 S6        30.12F
6HR MIN TEMP:  53; 6HR MAX TEMP:  59;

HOUGHTON       CLOUDY    45  39  79 E9        30.11F
6HR MIN TEMP:  45; 6HR MAX TEMP:  51;

COPPER HARBOR    N/A     46  37  71 S5        30.13F
6HR MIN TEMP:  46; 6HR MAX TEMP:  49;

IRONWOOD       CLEAR     54  48  82 SE6       30.05F
6HR MIN TEMP:  52; 6HR MAX TEMP:  55;

$$

ABBREVIATIONS USED IN REMARKS
   TC - TEMPERATURE IN CELSIUS
  WCI - WIND CHILL INDEX
   HX - HEAT INDEX
  VSB - VISIBILITY



USA.gov is the U.S. government's official web portal to all federal, state and local government web resources and services.